Location: Newark
(0.5300°S, 127.4800°E)
Time: 23:18:23
(UTC+00:00)

Vanguard 3 - Pass Details

Date: 18 September 2019
Orbit: 508 x 3262 km, 33.3° (Epoch: 13 October)

Event Time Altitude Azimuth Distance (km) Brightness Sun altitude
Rises 23:31:50 0° 276° (W) 5,446 10.8 31.9°
Reaches altitude 10° 23:35:55 10° 288° (WNW) 4,842 10.7 32.9°
Maximum altitude 23:47:40 27° 340° (NNW) 4,433 11.0 35.8°
Drops below altitude 10° 00:02:48 10° 31° (NNE) 6,189 12.1 39.6°
Sets 00:09:10 0° 42° (NE) 7,184 12.5 41.2°
